Voltar ao catálogo

PNEO4

AtivoCiênciaSSO
NORAD 49070·PAYLOAD·🇫🇷 France

Lançado Aug 17, 2021 de Guiana Space Centre

Loading…

Próximas Passagens (próximas 24 horas)

TLE

AtualizadoSource: Space-Track

Época: Sep 14, 2026, 15:10 UTC

1 49070U 21073E   26257.63235976  .00000796  00000-0  10779-3 0  9995
2 49070  97.8952 331.1093 0001450  85.7196 274.4182 14.81673854274613

Acompanhe PNEO4 em tempo real com AllMySat

Download on the App Store